• în România
  • Lista ţărilor
  • Pe 7 zile
  • Temperatura apei
  • Hartă satelitară
  • Meteo pe hartă
  • Widget-uri
  • user-avatar
    Intrare

    Meteo pe oră la Mérida

    Astăzi, 21 Septembrie, Vineri

    Timp Temperatura Precipitaţii Vânt Presiune Umiditate
    00:00 +15°C° 0 mm 2 m/s 595 mmHg 63%
    01:00 +14°C° 0 mm 2 m/s 595 mmHg 61%
    02:00 +14°C° 0 mm 2 m/s 595 mmHg 59%
    03:00 +14°C° 0 mm 2 m/s 594 mmHg 57%
    04:00 +14°C° 0 mm 2 m/s 594 mmHg 56%
    05:00 +15°C° 0 mm 2 m/s 595 mmHg 54%
    06:00 +16°C° 0 mm 2 m/s 596 mmHg 53%
    07:00 +18°C° 0 mm 1 m/s 596 mmHg 52%
    08:00 +19°C° 0 mm 2 m/s 597 mmHg 50%
    09:00 +20°C° 0 mm 2 m/s 598 mmHg 48%
    10:00 +23°C° 0 mm 2 m/s 599 mmHg 46%
    11:00 +24°C° 0.1 mm 2 m/s 598 mmHg 46%
    12:00 +24°C° 0.1 mm 2 m/s 598 mmHg 47%
    13:00 +25°C° 0.1 mm 2 m/s 597 mmHg 47%
    14:00 +24°C° 0.5 mm 2 m/s 597 mmHg 51%
    15:00 +23°C° 0.5 mm 2 m/s 596 mmHg 55%
    16:00 +21°C° 0.5 mm 2 m/s 595 mmHg 59%
    17:00 +20°C° 0.8 mm 2 m/s 595 mmHg 66%
    18:00 +19°C° 0.8 mm 1 m/s 595 mmHg 73%
    19:00 +18°C° 0.8 mm 1 m/s 595 mmHg 80%
    20:00 +18°C° 0.4 mm 1 m/s 595 mmHg 81%
    21:00 +16°C° 0.4 mm 1 m/s 595 mmHg 81%
    22:00 +16°C° 0.4 mm 1 m/s 596 mmHg 81%
    23:00 +16°C° 0.7 mm 1 m/s 595 mmHg 82%

    Mâine, 22 Septembrie, Sâmbătă

    Timp Temperatura Precipitaţii Vânt Presiune Umiditate
    00:00 +16°C° 0.7 mm 1 m/s 595 mmHg 82%
    01:00 +16°C° 0.7 mm 1 m/s 595 mmHg 82%
    02:00 +16°C° 0.7 mm 1 m/s 595 mmHg 82%
    03:00 +15°C° 0.7 mm 1 m/s 594 mmHg 83%
    04:00 +15°C° 0.7 mm 1 m/s 594 mmHg 83%
    05:00 +15°C° 0.8 mm 1 m/s 594 mmHg 81%
    06:00 +15°C° 0.8 mm 1 m/s 595 mmHg 79%
    07:00 +16°C° 0.8 mm 1 m/s 595 mmHg 77%
    08:00 +18°C° 0.4 mm 1 m/s 596 mmHg 73%
    09:00 +19°C° 0.4 mm 1 m/s 596 mmHg 70%
    10:00 +20°C° 0.4 mm 1 m/s 597 mmHg 66%
    11:00 +21°C° 0.2 mm 1 m/s 597 mmHg 64%
    12:00 +21°C° 0.2 mm 1 m/s 596 mmHg 62%
    13:00 +21°C° 0.2 mm 2 m/s 596 mmHg 61%
    14:00 +21°C° 0.5 mm 1 m/s 595 mmHg 65%
    15:00 +21°C° 0.5 mm 1 m/s 595 mmHg 69%
    16:00 +20°C° 0.5 mm 1 m/s 594 mmHg 73%
    17:00 +19°C° 1.1 mm 1 m/s 594 mmHg 77%
    18:00 +18°C° 1.1 mm 1 m/s 594 mmHg 80%
    19:00 +16°C° 1.1 mm 1 m/s 594 mmHg 84%
    20:00 +16°C° 0.7 mm 1 m/s 595 mmHg 83%
    21:00 +16°C° 0.7 mm 1 m/s 595 mmHg 82%
    22:00 +16°C° 0.7 mm 1 m/s 595 mmHg 81%
    23:00 +16°C° 0.7 mm 1 m/s 595 mmHg 81%

    Poimâine, 23 Septembrie, Duminică

    Timp Temperatura Precipitaţii Vânt Presiune Umiditate
    00:00 +16°C° 0.7 mm 1 m/s 594 mmHg 81%
    01:00 +15°C° 0.7 mm 1 m/s 594 mmHg 80%
    02:00 +15°C° 0.9 mm 1 m/s 594 mmHg 81%
    03:00 +15°C° 0.9 mm 1 m/s 594 mmHg 81%
    04:00 +15°C° 0.9 mm 1 m/s 593 mmHg 81%
    05:00 +15°C° 0.6 mm 1 m/s 594 mmHg 80%
    06:00 +15°C° 0.6 mm 1 m/s 594 mmHg 79%
    07:00 +16°C° 0.6 mm 1 m/s 595 mmHg 79%
    08:00 +18°C° 0.9 mm 1 m/s 596 mmHg 76%
    09:00 +19°C° 0.9 mm 1 m/s 596 mmHg 74%
    10:00 +19°C° 0.9 mm 1 m/s 597 mmHg 71%
    11:00 +20°C° 0.7 mm 1 m/s 597 mmHg 69%
    12:00 +21°C° 0.7 mm 1 m/s 596 mmHg 66%
    13:00 +22°C° 0.7 mm 1 m/s 596 mmHg 63%
    14:00 +21°C° 0.8 mm 1 m/s 595 mmHg 66%
    15:00 +20°C° 0.8 mm 1 m/s 595 mmHg 69%
    16:00 +20°C° 0.8 mm 1 m/s 594 mmHg 72%
    17:00 +19°C° 1.6 mm 1 m/s 594 mmHg 76%
    18:00 +18°C° 1.6 mm 1 m/s 594 mmHg 81%
    19:00 +16°C° 1.6 mm 1 m/s 594 mmHg 85%
    20:00 +16°C° 0.9 mm 1 m/s 595 mmHg 84%
    21:00 +16°C° 0.9 mm 1 m/s 595 mmHg 83%
    22:00 +16°C° 0.9 mm 1 m/s 596 mmHg 83%
    23:00 +15°C° 0.8 mm 1 m/s 595 mmHg 82%

    24 Septembrie, Luni

    Timp Temperatura Precipitaţii Vânt Presiune Umiditate
    00:00 +15°C° 0.8 mm 1 m/s 595 mmHg 82%
    01:00 +15°C° 0.8 mm 1 m/s 595 mmHg 82%
    02:00 +15°C° 1 mm 1 m/s 594 mmHg 83%
    03:00 +15°C° 1 mm 1 m/s 594 mmHg 83%
    04:00 +14°C° 1 mm 1 m/s 594 mmHg 84%
    05:00 +15°C° 1.5 mm 1 m/s 595 mmHg 83%
    06:00 +15°C° 1.5 mm 1 m/s 595 mmHg 82%
    07:00 +15°C° 1.5 mm 1 m/s 596 mmHg 81%
    08:00 +16°C° 1.3 mm 1 m/s 596 mmHg 78%
    09:00 +18°C° 1.3 mm 1 m/s 597 mmHg 76%
    10:00 +18°C° 1.3 mm 1 m/s 598 mmHg 73%
    11:00 +19°C° 0.9 mm 1 m/s 597 mmHg 72%
    12:00 +19°C° 0.9 mm 1 m/s 597 mmHg 71%
    13:00 +20°C° 0.9 mm 1 m/s 596 mmHg 69%
    14:00 +19°C° 1.1 mm 1 m/s 596 mmHg 72%
    15:00 +19°C° 1.1 mm 1 m/s 595 mmHg 75%
    16:00 +18°C° 1.1 mm 1 m/s 595 mmHg 78%
    17:00 +18°C° 0.6 mm 1 m/s 595 mmHg 79%
    18:00 +16°C° 0.6 mm 1 m/s 595 mmHg 81%
    19:00 +15°C° 0.6 mm 2 m/s 595 mmHg 83%
    20:00 +15°C° 0.2 mm 2 m/s 595 mmHg 81%
    21:00 +15°C° 0.2 mm 2 m/s 596 mmHg 80%
    22:00 +15°C° 0.2 mm 2 m/s 596 mmHg 78%
    23:00 +14°C° 0.2 mm 2 m/s 595 mmHg 77%

    25 Septembrie, Marţi

    Timp Temperatura Precipitaţii Vânt Presiune Umiditate
    00:00 +14°C° 0.2 mm 2 m/s 595 mmHg 76%
    01:00 +14°C° 0.2 mm 1 m/s 595 mmHg 75%
    02:00 +14°C° 0.2 mm 1 m/s 595 mmHg 74%
    03:00 +14°C° 0.2 mm 2 m/s 595 mmHg 74%
    04:00 +14°C° 0.2 mm 2 m/s 594 mmHg 74%
    05:00 +14°C° 0.3 mm 2 m/s 595 mmHg 73%
    06:00 +15°C° 0.3 mm 2 m/s 596 mmHg 72%
    07:00 +15°C° 0.3 mm 2 m/s 596 mmHg 71%
    08:00 +16°C° 0.5 mm 1 m/s 597 mmHg 69%
    09:00 +19°C° 0.5 mm 1 m/s 598 mmHg 67%
    10:00 +20°C° 0.5 mm 1 m/s 598 mmHg 64%
    11:00 +20°C° 0.2 mm 2 m/s 598 mmHg 62%
    12:00 +20°C° 0.2 mm 2 m/s 597 mmHg 59%
    13:00 +21°C° 0.2 mm 2 m/s 597 mmHg 57%
    14:00 +21°C° 0.2 mm 2 m/s 596 mmHg 59%
    15:00 +20°C° 0.2 mm 2 m/s 596 mmHg 60%
    16:00 +21°C° 0.2 mm 1 m/s 595 mmHg 62%
    17:00 +19°C° 0.2 mm 1 m/s 595 mmHg 65%
    18:00 +18°C° 0.2 mm 1 m/s 595 mmHg 68%
    19:00 +16°C° 0.2 mm 2 m/s 595 mmHg 71%
    20:00 +15°C° 0.2 mm 2 m/s 595 mmHg 69%
    21:00 +15°C° 0.2 mm 2 m/s 595 mmHg 67%
    22:00 +14°C° 0.2 mm 2 m/s 595 mmHg 65%
    23:00 +14°C° 0.3 mm 2 m/s 595 mmHg 65%

    26 Septembrie, Miercuri

    Timp Temperatura Precipitaţii Vânt Presiune Umiditate
    00:00 +14°C° 0.3 mm 2 m/s 595 mmHg 65%
    01:00 +14°C° 0.3 mm 2 m/s 594 mmHg 65%
    02:00 +14°C° 0.1 mm 2 m/s 594 mmHg 65%
    03:00 +14°C° 0.1 mm 2 m/s 594 mmHg 65%
    04:00 +14°C° 0.1 mm 2 m/s 594 mmHg 66%
    05:00 +14°C° 0.1 mm 1 m/s 594 mmHg 65%
    06:00 +15°C° 0.1 mm 1 m/s 595 mmHg 63%
    07:00 +16°C° 0.1 mm 1 m/s 596 mmHg 62%
    08:00 +19°C° 0 mm 1 m/s 597 mmHg 57%
    09:00 +19°C° 0 mm 2 m/s 597 mmHg 52%
    10:00 +21°C° 0 mm 2 m/s 598 mmHg 47%
    11:00 +23°C° 0 mm 2 m/s 598 mmHg 46%
    12:00 +23°C° 0 mm 2 m/s 597 mmHg 45%
    13:00 +24°C° 0 mm 2 m/s 597 mmHg 44%
    14:00 +23°C° 0.1 mm 2 m/s 596 mmHg 47%
    15:00 +21°C° 0.1 mm 2 m/s 595 mmHg 50%
    16:00 +21°C° 0.1 mm 2 m/s 595 mmHg 53%
    17:00 +19°C° 0.1 mm 2 m/s 594 mmHg 59%
    18:00 +18°C° 0.1 mm 1 m/s 594 mmHg 64%
    19:00 +16°C° 0.1 mm 1 m/s 594 mmHg 70%
    20:00 +16°C° 0 mm 1 m/s 594 mmHg 67%
    21:00 +15°C° 0 mm 2 m/s 594 mmHg 65%
    22:00 +15°C° 0 mm 2 m/s 594 mmHg 62%
    23:00 +15°C° 0.1 mm 2 m/s 594 mmHg 63%
    Arată mai mult